Voltar ao catálogo

SYRACUSE 3A

AtivoMilitarGEO
NORAD 28885·PAYLOAD·🇫🇷 France

Lançado Oct 13, 2005 de Guiana Space Centre

Loading…

TLE

AtualizadoSource: Space-Track

Época: Sep 11, 2026, 12:27 UTC

1 28885U 05041B   26254.51939881  .00000114  00000-0  00000-0 0  9990
2 28885   4.8548  74.7263 0002458 106.5771  42.9291  1.00275934 76615

Acompanhe SYRACUSE 3A em tempo real com AllMySat

Download on the App Store